Weather History for KSGF - April, 2013

Change the Weather History Date:

Monday, April 29, 2013

  Actual Average Record
Temperature  
Mean Temperature 68 °F 60 °F  
Max Temperature 83 °F 71 °F 89 °F (1899)
Min Temperature 53 °F 49 °F 31 °F (2008)
Degree Days  
Heating Degree Days 0 6  
Month to date heating degree days 337 294  
Since 1 July heating degree days 4352 4468  
Cooling Degree Days 3 1  
Month to date cooling degree days 12 22  
Year to date cooling degree days 12 25  
Growing Degree Days 18 (Base 50)    
Moisture  
Dew Point 54 °F    
Average Humidity 66    
Maximum Humidity 89    
Minimum Humidity 42    
Precipitation  
Precipitation 0.00 in 0.17 in 2.51 in (1983)
Month to date precipitation 5.64 4.14  
Year to date precipitation 15.75 12.75  
Snow  
Snow 0.00 in - - ()
Month to date snowfall T  
Since 1 July snowfall 11.3  
Snow Depth 0.00 in    
Sea Level Pressure  
Sea Level Pressure 29.83 in    
Wind  
Wind Speed 13 mph (South)    
Max Wind Speed 21 mph    
Max Gust Speed 25 mph    
Visibility 10 miles    
Events      
T = Trace of Precipitation, MM = Missing Value Source: NWS Daily Summary

Daily Weather History Graph

Daily Weather History Graph

Search for Another Location

Airport or City:

Trip Planner

Search our weather history database for the weather conditions in past years. The results will help you decide how hot, cold, wet, or windy it might be!

Date:

Astronomy

Apr. 29, 2013 Rise Set
Actual Time 6:20 AM CDT 8:01 PM CDT
Civil Twilight 5:52 AM CDT 8:29 PM CDT
Nautical Twilight 5:19 AM CDT 9:03 PM CDT
Astronomical Twilight 4:43 AM CDT 9:38 PM CDT
Moon No Moon Rise 9:44 AM CDT (4/29)
Length of Visible Light 14h 36m
Length of Day
13h 40m
Waning Gibbous, 80% of the Moon is Illuminated
Apr 29
Waning Gibbous
May 2
Last Quarter
May 9
New
May 17
First Quarter
May 24
Full

Hourly Weather History & Observations

Time (CDT) Temp. Heat Index Dew Point Humidity Pressure Visibility Wind Dir Wind Speed Gust Speed Precip Events Conditions
12:52 AM 57.0 °F - 48.9 °F 74% 29.88 in 10.0 mi SSE 13.8 mph - N/A   Clear
1:52 AM 55.0 °F - 48.9 °F 80% 29.87 in 10.0 mi SSE 12.7 mph - N/A   Clear
2:52 AM 55.0 °F - 50.0 °F 83% 29.86 in 10.0 mi SSE 11.5 mph - N/A   Clear
3:52 AM 54.0 °F - 50.0 °F 86% 29.86 in 10.0 mi SSE 13.8 mph - N/A   Clear
4:52 AM 54.0 °F - 50.0 °F 86% 29.88 in 10.0 mi SSE 11.5 mph - N/A   Clear
5:52 AM 53.1 °F - 50.0 °F 89% 29.88 in 10.0 mi SSE 10.4 mph - N/A   Clear
6:52 AM 54.0 °F - 50.0 °F 86% 29.89 in 10.0 mi SSE 11.5 mph - N/A   Clear
7:52 AM 57.9 °F - 52.0 °F 81% 29.90 in 10.0 mi South 10.4 mph - N/A   Clear
8:52 AM 64.0 °F - 55.0 °F 73% 29.89 in 10.0 mi South 12.7 mph - N/A   Clear
9:52 AM 68.0 °F - 57.9 °F 70% 29.88 in 10.0 mi South 13.8 mph - N/A   Clear
10:52 AM 72.0 °F - 60.1 °F 66% 29.87 in 10.0 mi SSW 19.6 mph - N/A   Clear
11:52 AM 75.9 °F - 62.1 °F 62% 29.85 in 10.0 mi SSW 13.8 mph - N/A   Clear
12:52 PM 79.0 °F - 63.0 °F 58% 29.82 in 10.0 mi South 13.8 mph - N/A   Clear
1:52 PM 82.0 °F 82.4 °F 60.1 °F 47% 29.80 in 10.0 mi SSW 16.1 mph - N/A   Clear
2:52 PM 82.9 °F 82.8 °F 59.0 °F 44% 29.78 in 10.0 mi SW 19.6 mph - N/A   Clear
3:52 PM 82.9 °F 82.4 °F 57.0 °F 41% 29.76 in 10.0 mi SW 16.1 mph - N/A   Clear
4:45 PM 62.6 °F - 50.0 °F 63% 29.96 in 10.0 mi WNW 6.9 mph - N/A   Mostly Cloudy
4:52 PM 82.0 °F 81.4 °F 55.0 °F 39% 29.75 in 10.0 mi SW 17.3 mph - N/A   Clear
5:52 PM 81.0 °F 80.7 °F 55.0 °F 41% 29.75 in 10.0 mi SSW 11.5 mph - N/A   Clear
6:52 PM 78.1 °F - 55.9 °F 46% 29.74 in 10.0 mi SW 9.2 mph - N/A   Clear
7:52 PM 71.1 °F - 55.9 °F 59% 29.75 in 10.0 mi SSW 9.2 mph - N/A   Clear
8:52 PM 70.0 °F - 54.0 °F 57% 29.76 in 10.0 mi South 6.9 mph - N/A   Clear
9:52 PM 69.1 °F - 53.1 °F 57% 29.77 in 10.0 mi South 10.4 mph - N/A   Clear
10:52 PM 69.1 °F - 53.1 °F 57% 29.78 in 10.0 mi SSE 11.5 mph - N/A   Clear
11:52 PM 68.0 °F - 55.0 °F 63% 29.78 in 10.0 mi SSE 11.5 mph - N/A   Clear